Regional Weather Roundup
Issued by NWS

Home | Current Version | Previous Version | Graphics & Text | Print | Product List | Glossary On
Versions: 1 2 3 4 5 6 7 8 9 10 11 12 13 14 15 16 17 18 19 20 21 22 23 24 25 26 27 28 29 30 31 32 33 34 35 36 37 38 39 40 41 42 43 44 45 46 47 48 49 50
526
ASUS44 KMEG 202310
RWRTN
TENNESSEE HOURLY STATE WEATHER ROUNDUP
NATIONAL WEATHER SERVICE MEMPHIS TN
600 PM CDT FRI OCT 20 2017

TNZ002-004-019-021-049-052-054-088>092-210000-
WEST TENNESSEE

CITY           SKY/WX    TMP DP  RH WIND       PRES   REMARKS
MEMPHIS INTL   MOCLDY    73  54  51 SE5       30.11F
NWS MEMPHIS      N/A     69 N/A N/A MISG        N/A
JACKSON        MOCLDY    68  57  68 CALM      30.14S
DYERSBURG      CLOUDY    68  55  63 CALM      30.13F
SOMERVILLE     CLEAR     66  57  72 CALM      30.12S
COVINGTON      CLEAR     70  54  56 CALM      30.13S
UNION CITY     CLEAR     72  52  49 SE5       30.13S
BOLIVAR        CLEAR     70  55  60 CALM      30.13S
HUNTINGDON     CLEAR     66  54  63 CALM      30.14R
LEXINGTON      CLEAR     66  59  77 CALM      30.15R
SELMER         CLEAR     68  54  60 CALM      30.14S
SAVANNAH       CLEAR     66  54  63 CALM      30.14S
$$

TNZ008-025-027-028-033-062-065-066-210000-
NORTH MIDDLE TENNESSEE

CITY           SKY/WX    TMP DP  RH WIND       PRES   REMARKS
NASHVILLE      CLOUDY    70  46  42 CALM      30.17S
PORTLAND       CLEAR     64  50  59 S5        30.17R
CLARKSVILLE    CLOUDY    70  45  40 CALM      30.16S
SMYRNA         CLOUDY    70  49  47 CALM      30.18R
COOKEVILLE     CLEAR     57  54  88 CALM      30.18R
GALLATIN       CLEAR     66  48  52 CALM      30.19S HAZE
CROSSVILLE     CLEAR     64  49  57 CALM      30.23R
$$

TNZ061-075-076-078-094-096-097-210000-
SOUTH MIDDLE TENNESSEE

CITY           SKY/WX    TMP DP  RH WIND       PRES   REMARKS
FAYETTEVILLE   PTCLDY    68  52  56 CALM      30.18R
TULLAHOMA      CLEAR     64  52  63 CALM      30.20R
WINCHESTER     CLEAR     66  48  52 CALM        N/A
COLUMBIA       CLEAR     68  48  49 CALM      30.15S
SHELBYVILLE    CLEAR     68  50  52 CALM      30.18R
$$

TNZ017-018-042-046-047-210000-
NORTHEAST TENNESSEE

CITY           SKY/WX    TMP DP  RH WIND       PRES   REMARKS
TRI CITIES     PTCLDY    65  50  58 CALM      30.22F
ELIZABETHTON   CLEAR     59  48  67 CALM      30.23R
$$

TNZ012-013-036-069-073-074-210000-
CENTRAL EAST TENNESSEE

CITY           SKY/WX    TMP DP  RH WIND       PRES   REMARKS
KNOXVILLE      MOCLDY    68  53  58 N6        30.18S
DOWNTOWN KNOXV CLEAR     64  52  63 CALM      30.19S
GATLINBURG     CLEAR     66  45  45 CALM      30.19R
MORRISTOWN     CLEAR     70  43  37 NE3       30.20S
JACKSBORO      CLEAR     63  54  72 CALM      30.24S
$$

TNZ083-085-099-210000-
SOUTHEAST TENNESSEE

CITY           SKY/WX    TMP DP  RH WIND       PRES   REMARKS
CHATTANOOGA    PTCLDY    68  54  60 CALM      30.18S
DAYTON         CLEAR     66  59  77 CALM      30.18R
$$

SKY/WX REPORTED AS FAIR MEANS FEW OR NO CLOUDS BELOW
12 THOUSAND FEET.





USA.gov is the U.S. government's official web portal to all federal, state and local government web resources and services.